Oxnard, CA

7:24 AM PST on December 10, 2016 (GMT -0800)
San Nicolas Island Naval Outlying Field

Weather History for KNSI - January, 2013

Change the Weather History Date:

Thursday, January 10, 2013

  Actual Average Record
Temperature  
Mean Temperature 56 °F -  
Max Temperature 62 °F 59 °F 73 °F (2009)
Min Temperature 49 °F 49 °F 37 °F (2002)
Degree Days  
Heating Degree Days 10    
Growing Degree Days 6 (Base 50)    
Moisture  
Dew Point 41 °F    
Average Humidity 58    
Maximum Humidity 67    
Minimum Humidity 47    
Precipitation  
Precipitation 0.00 in - - ()
Sea Level Pressure  
Sea Level Pressure 30.04 in    
Wind  
Wind Speed 23 mph (WNW)    
Max Wind Speed 33 mph    
Max Gust Speed 45 mph    
Visibility 9 miles    
Events      
Averages and records for this station are not official NWS values.
T = Trace of Precipitation, MM = Missing Value Source: NWS Daily Summary

Daily Weather History Graph

Daily Weather History Graph

Search for Another Location

Airport or City:

Trip Planner

Search our weather history database for the weather conditions in past years. The results will help you decide how hot, cold, wet, or windy it might be!

Date:

Astronomy

Jan. 10, 2013 Rise Set
Actual Time 7:02 AM PST 5:09 PM PST
Civil Twilight 6:34 AM PST 5:36 PM PST
Nautical Twilight 6:04 AM PST 6:06 PM PST
Astronomical Twilight 5:34 AM PST 6:36 PM PST
Moon 5:46 AM PST 4:21 PM PST
Length of Visible Light 11h 01m
Length of Day
10h 07m
Waning Crescent, 1% of the Moon is Illuminated
Jan 10
Waning Crescent
Jan 11
New
Jan 18
First Quarter
Jan 26
Full
Feb 3
Last Quarter

Hourly Weather History & Observations

Time (PST) Temp. Dew Point Humidity Pressure Visibility Wind Dir Wind Speed Gust Speed Precip Events Conditions
12:39 AM 62.6 °F 48.2 °F 59% 30.01 in 10.0 mi WNW 13.8 mph - N/A   Scattered Clouds
12:53 AM 62.1 °F 48.0 °F 60% 30.01 in 10.0 mi WNW 16.1 mph - N/A   Partly Cloudy
1:38 AM 60.8 °F 48.2 °F 63% 30.02 in 10.0 mi WNW 20.7 mph 27.6 mph N/A   Mostly Cloudy
1:43 AM 60.8 °F 48.2 °F 63% 30.02 in 10.0 mi WNW 23.0 mph - N/A   Mostly Cloudy
1:53 AM 60.1 °F 48.0 °F 64% 30.01 in 10.0 mi WNW 25.3 mph 33.4 mph N/A   Mostly Cloudy
2:34 AM 60.8 °F 48.2 °F 63% 30.02 in 10.0 mi WNW 24.2 mph 29.9 mph N/A   Overcast
2:53 AM 59.0 °F 46.9 °F 64% 30.01 in 10.0 mi NW 20.7 mph 33.4 mph N/A   Overcast
3:01 AM 57.2 °F 46.4 °F 67% 30.02 in 10.0 mi WNW 25.3 mph 32.2 mph N/A   Mostly Cloudy
3:09 AM 57.2 °F 44.6 °F 63% 30.02 in 10.0 mi NW 24.2 mph 32.2 mph N/A   Mostly Cloudy
3:18 AM 57.2 °F 44.6 °F 63% 30.02 in 10.0 mi NW 25.3 mph 32.2 mph N/A   Mostly Cloudy
3:39 AM 57.2 °F 42.8 °F 59% 30.02 in 10.0 mi WNW 26.5 mph 35.7 mph N/A   Overcast
3:53 AM 57.9 °F 43.0 °F 58% 30.00 in 10.0 mi WNW 23.0 mph 33.4 mph N/A   Overcast
4:53 AM 57.0 °F 41.0 °F 55% 30.00 in 10.0 mi WNW 24.2 mph 33.4 mph N/A   Mostly Cloudy
5:53 AM 54.1 °F 39.0 °F 57% 30.01 in 7.0 mi WNW 25.3 mph 33.4 mph N/A   Scattered Clouds
6:53 AM 53.4 °F 37.0 °F 54% 30.02 in 7.0 mi WNW 23.0 mph 35.7 mph N/A   Scattered Clouds
7:53 AM 53.8 °F 35.1 °F 49% 30.03 in 7.0 mi WNW 23.0 mph 35.7 mph N/A   Mostly Cloudy
8:53 AM 54.1 °F 39.0 °F 57% 30.05 in 7.0 mi WNW 26.5 mph 36.8 mph N/A   Mostly Cloudy
9:53 AM 49.1 °F 37.0 °F 63% 30.06 in 7.0 mi WNW 27.6 mph 36.8 mph N/A   Scattered Clouds
10:53 AM 50.4 °F 37.0 °F 60% 30.04 in 7.0 mi WNW 29.9 mph 42.6 mph N/A   Scattered Clouds
11:53 AM 53.8 °F 39.0 °F 57% 30.02 in 7.0 mi WNW 33.4 mph 44.9 mph N/A   Scattered Clouds
12:53 PM 51.1 °F 39.0 °F 63% 30.02 in 7.0 mi WNW 32.2 mph 41.4 mph N/A   Scattered Clouds
1:53 PM 54.5 °F 39.0 °F 56% 30.02 in 7.0 mi WNW 31.1 mph 41.4 mph N/A   Scattered Clouds
2:53 PM 50.2 °F 39.0 °F 66% 30.04 in 7.0 mi WNW 29.9 mph 39.1 mph N/A   Scattered Clouds
3:53 PM 49.3 °F 37.0 °F 63% 30.04 in 7.0 mi WNW 27.6 mph 39.1 mph N/A   Scattered Clouds
4:53 PM 55.0 °F 36.0 °F 49% 30.04 in 10.0 mi WNW 29.9 mph 36.8 mph N/A   Scattered Clouds
5:53 PM 54.0 °F 36.0 °F 51% 30.05 in 10.0 mi WNW 27.6 mph 35.7 mph N/A   Partly Cloudy
6:53 PM 55.0 °F 36.0 °F 49% 30.06 in 10.0 mi WNW 27.6 mph 39.1 mph N/A   Scattered Clouds
7:53 PM 55.0 °F 37.9 °F 53% 30.08 in 10.0 mi WNW 27.6 mph 38.0 mph N/A   Mostly Cloudy
8:53 PM 55.0 °F 35.1 °F 47% 30.10 in 10.0 mi WNW 31.1 mph 38.0 mph N/A   Scattered Clouds
9:53 PM 55.0 °F 36.0 °F 49% 30.12 in 10.0 mi WNW 27.6 mph 34.5 mph N/A   Scattered Clouds
10:53 PM 54.0 °F 35.1 °F 49% 30.14 in 10.0 mi WNW 27.6 mph 35.7 mph N/A   Clear
11:53 PM 54.0 °F 36.0 °F 51% 30.14 in 10.0 mi NW 21.9 mph 32.2 mph N/A   Partly Cloudy